TGZ2775 LGAV-UGTB

Flight info

Callsign TGZ2775
Flight time 2h 12m
Altitude 39000
Route KRO UN604 SOSIR UG802 IMR UR32 VAKUM UT54 KFK UR32 HAY UT54 SIV UW706 TBN UG261 NOLGA N61 LAGAS
Aircraft B737/M-SDRWY/S

Departure

Time 2026-04-15 08:07
Airport Athens Eleftherios Venizelos International Airport (LGAV)

Arrival

Time 2026-04-15 10:19
Airport Tbilisi International Airport (UGTB)
Time Latitude Longitude Altitude Speed Heading
2026-04-15 07:53 37.92999 23.94384 282 ft 0 kts 40°
2026-04-15 08:01 37.92999 23.94383 282 ft 2 kts 40°
2026-04-15 08:01 37.92986 23.94370 282 ft 2 kts 40°
2026-04-15 08:02 37.92974 23.94356 283 ft 2 kts 40°
2026-04-15 08:02 37.92961 23.94342 287 ft 2 kts 60°
2026-04-15 08:02 37.92958 23.94325 281 ft 1 kts 119°
2026-04-15 08:02 37.92960 23.94320 281 ft 0 kts 123°
2026-04-15 08:04 37.92959 23.94322 281 ft 1 kts 128°
2026-04-15 08:05 37.92935 23.94339 281 ft 7 kts 159°
2026-04-15 08:05 37.92880 23.94357 282 ft 8 kts 143°
2026-04-15 08:05 37.92836 23.94431 282 ft 13 kts 132°
2026-04-15 08:05 37.92753 23.94429 280 ft 14 kts 215°
2026-04-15 08:06 37.92674 23.94347 279 ft 16 kts 219°
2026-04-15 08:06 37.92582 23.94282 279 ft 15 kts 174°
2026-04-15 08:06 37.92523 23.94348 279 ft 11 kts 126°
2026-04-15 08:06 37.92492 23.94441 278 ft 16 kts 72°
2026-04-15 08:07 37.92639 23.94605 279 ft 55 kts 37°
2026-04-15 08:07 37.93185 23.95114 287 ft 136 kts 37°
2026-04-15 08:07 37.94085 23.95982 618 ft 176 kts 38°
2026-04-15 08:07 37.95006 23.96882 1917 ft 161 kts 37°
2026-04-15 08:08 37.95895 23.97713 2944 ft 162 kts 39°
2026-04-15 08:08 37.96866 23.98601 3609 ft 180 kts 39°
2026-04-15 08:08 37.97909 23.99574 4398 ft 193 kts 41°
2026-04-15 08:08 37.98999 24.00637 5204 ft 202 kts 41°
2026-04-15 08:09 38.00138 24.01755 5959 ft 212 kts 41°
2026-04-15 08:09 38.01342 24.02931 6642 ft 226 kts 40°
2026-04-15 08:09 38.02627 24.04179 7292 ft 240 kts 39°
2026-04-15 08:09 38.03996 24.05504 7951 ft 255 kts 39°
2026-04-15 08:10 38.05424 24.06940 8585 ft 269 kts 47°
2026-04-15 08:10 38.06308 24.09048 9228 ft 279 kts 82°
2026-04-15 08:10 38.06193 24.11532 9938 ft 289 kts 103°
2026-04-15 08:10 38.05729 24.14072 10561 ft 303 kts 105°
2026-04-15 08:11 38.05222 24.16729 11185 ft 316 kts 105°
2026-04-15 08:11 38.04703 24.19493 11812 ft 328 kts 105°
2026-04-15 08:11 38.04177 24.22367 12454 ft 340 kts 105°
2026-04-15 08:11 38.03644 24.25344 13106 ft 352 kts 105°
2026-04-15 08:12 38.03115 24.28384 13759 ft 363 kts 103°
2026-04-15 08:12 38.03047 24.31640 14357 ft 378 kts 82°
2026-04-15 08:12 38.03890 24.34837 14980 ft 387 kts 61°
2026-04-15 08:12 38.05292 24.37786 15620 ft 395 kts 57°
2026-04-15 08:13 38.06766 24.40781 16249 ft 402 kts 57°
2026-04-15 08:13 38.08257 24.43818 16893 ft 409 kts 57°
2026-04-15 08:13 38.09664 24.46712 17493 ft 416 kts 57°
2026-04-15 08:13 38.11199 24.49895 17868 ft 429 kts 57°
2026-04-15 08:14 38.12739 24.53116 18453 ft 435 kts 57°
2026-04-15 08:14 38.14300 24.56404 19126 ft 436 kts 58°
2026-04-15 08:14 38.15871 24.59721 19654 ft 441 kts 58°
2026-04-15 08:14 38.17461 24.63085 20172 ft 446 kts 58°
2026-04-15 08:15 38.19061 24.66473 20697 ft 450 kts 58°
2026-04-15 08:15 38.20679 24.69904 21229 ft 453 kts 58°
2026-04-15 08:15 38.22306 24.73356 21745 ft 457 kts 59°
2026-04-15 08:15 38.23948 24.76844 22251 ft 461 kts 59°
2026-04-15 08:16 38.25600 24.80355 22745 ft 464 kts 59°
2026-04-15 08:16 38.27262 24.83892 23224 ft 468 kts 59°
2026-04-15 08:16 38.28938 24.87465 23691 ft 471 kts 59°
2026-04-15 08:16 38.30624 24.91062 24092 ft 475 kts 59°
2026-04-15 08:17 38.32320 24.94684 24507 ft 476 kts 59°
2026-04-15 08:17 38.34025 24.98331 24920 ft 479 kts 59°
2026-04-15 08:17 38.35708 25.01934 25306 ft 481 kts 59°
2026-04-15 08:17 38.37424 25.05608 25689 ft 484 kts 59°
2026-04-15 08:18 38.38994 25.09409 26031 ft 486 kts 68°
2026-04-15 08:18 38.40010 25.13521 26388 ft 487 kts 79°
2026-04-15 08:18 38.40486 25.17792 26754 ft 487 kts 89°
2026-04-15 08:18 38.40400 25.22097 27090 ft 487 kts 96°
2026-04-15 08:19 38.40148 25.26411 27420 ft 489 kts 96°
2026-04-15 08:19 38.39874 25.30752 27721 ft 492 kts 96°
2026-04-15 08:19 38.39608 25.35108 28024 ft 494 kts 96°
2026-04-15 08:19 38.39359 25.39492 28331 ft 497 kts 96°
2026-04-15 08:20 38.39125 25.43881 28735 ft 496 kts 96°
2026-04-15 08:20 38.38899 25.48263 29226 ft 495 kts 96°
2026-04-15 08:20 38.38677 25.52631 29717 ft 493 kts 96°
2026-04-15 08:20 38.38452 25.56985 30172 ft 492 kts 96°
2026-04-15 08:21 38.38223 25.61348 30547 ft 492 kts 96°
2026-04-15 08:21 38.37993 25.65692 30961 ft 491 kts 96°
2026-04-15 08:21 38.37762 25.70022 31407 ft 488 kts 97°
2026-04-15 08:21 38.37526 25.74324 31834 ft 486 kts 97°
2026-04-15 08:22 38.37290 25.78614 32223 ft 485 kts 96°
2026-04-15 08:22 38.37077 25.82848 32579 ft 484 kts 97°
2026-04-15 08:22 38.36815 25.87123 32950 ft 483 kts 98°
2026-04-15 08:22 38.36528 25.91373 33334 ft 481 kts 98°
2026-04-15 08:23 38.36234 25.95611 33702 ft 480 kts 98°
2026-04-15 08:23 38.35941 25.99840 34047 ft 479 kts 98°
2026-04-15 08:23 38.35650 26.04064 34382 ft 478 kts 98°
2026-04-15 08:23 38.35362 26.08284 34617 ft 478 kts 98°
2026-04-15 08:24 38.35073 26.12510 34829 ft 480 kts 99°
2026-04-15 08:24 38.34858 26.16766 35049 ft 482 kts 95°
2026-04-15 08:24 38.34806 26.21041 35292 ft 483 kts 94°
2026-04-15 08:24 38.34744 26.25322 35524 ft 483 kts 95°
2026-04-15 08:25 38.34617 26.29585 35740 ft 483 kts 96°
2026-04-15 08:25 38.34455 26.33857 35969 ft 483 kts 97°
2026-04-15 08:25 38.34283 26.38086 36201 ft 483 kts 97°
2026-04-15 08:25 38.34107 26.42356 36420 ft 483 kts 97°
2026-04-15 08:26 38.33935 26.46636 36640 ft 483 kts 97°
2026-04-15 08:26 38.33766 26.50914 36876 ft 483 kts 97°
2026-04-15 08:26 38.33600 26.55187 37092 ft 483 kts 97°
2026-04-15 08:26 38.33433 26.59463 37292 ft 483 kts 97°
2026-04-15 08:27 38.33266 26.63744 37512 ft 483 kts 97°
2026-04-15 08:27 38.33097 26.68020 37714 ft 483 kts 97°
2026-04-15 08:27 38.32926 26.72299 37896 ft 484 kts 97°
2026-04-15 08:27 38.32752 26.76575 38088 ft 484 kts 97°
2026-04-15 08:28 38.32578 26.80860 38330 ft 483 kts 97°
2026-04-15 08:28 38.32403 26.85120 38605 ft 481 kts 97°
2026-04-15 08:28 38.32226 26.89377 38803 ft 482 kts 97°
2026-04-15 08:28 38.32049 26.93587 38917 ft 483 kts 97°
2026-04-15 08:29 38.31870 26.97913 39067 ft 482 kts 96°
2026-04-15 08:29 38.32453 27.06425 39144 ft 490 kts 82°
2026-04-15 08:30 38.33842 27.14953 39139 ft 492 kts 81°
2026-04-15 08:30 38.35216 27.23528 39130 ft 494 kts 82°
2026-04-15 08:31 38.36518 27.32136 39133 ft 495 kts 82°
2026-04-15 08:31 38.37792 27.40697 39127 ft 495 kts 82°
2026-04-15 08:32 38.39079 27.49314 39139 ft 494 kts 82°
2026-04-15 08:32 38.40362 27.57913 39144 ft 493 kts 82°
2026-04-15 08:33 38.41635 27.66501 39144 ft 492 kts 82°
2026-04-15 08:33 38.42900 27.75092 39149 ft 492 kts 82°
2026-04-15 08:34 38.44156 27.83668 39149 ft 492 kts 82°
2026-04-15 08:34 38.45412 27.92258 39161 ft 492 kts 82°
2026-04-15 08:35 38.46661 28.00858 39156 ft 493 kts 82°
2026-04-15 08:35 38.47895 28.09409 39158 ft 493 kts 82°
2026-04-15 08:36 38.49128 28.18021 39164 ft 493 kts 82°
2026-04-15 08:36 38.50358 28.26652 39166 ft 494 kts 82°
2026-04-15 08:37 38.51584 28.35299 39174 ft 494 kts 82°
2026-04-15 08:37 38.52802 28.43944 39174 ft 495 kts 82°
2026-04-15 08:38 38.54008 28.52544 39176 ft 495 kts 82°
2026-04-15 08:38 38.55216 28.61210 39176 ft 495 kts 82°
2026-04-15 08:39 38.56417 28.69875 39180 ft 495 kts 82°
2026-04-15 08:39 38.57612 28.78546 39186 ft 495 kts 82°
2026-04-15 08:40 38.58801 28.87225 39195 ft 495 kts 82°
2026-04-15 08:40 38.59974 28.95835 39199 ft 495 kts 82°
2026-04-15 08:41 38.61151 29.04521 39193 ft 496 kts 82°
2026-04-15 08:41 38.62323 29.13219 39196 ft 496 kts 82°
2026-04-15 08:42 38.63489 29.21929 39204 ft 497 kts 82°
2026-04-15 08:42 38.64651 29.30662 39207 ft 498 kts 82°
2026-04-15 08:43 38.65809 29.39408 39212 ft 498 kts 82°
2026-04-15 08:43 38.66954 29.48113 39211 ft 499 kts 82°
2026-04-15 08:44 38.68101 29.56888 39215 ft 500 kts 82°
2026-04-15 08:44 38.69243 29.65673 39209 ft 500 kts 82°
2026-04-15 08:45 38.70373 29.74417 39200 ft 501 kts 82°
2026-04-15 08:45 38.71503 29.83219 39205 ft 502 kts 82°
2026-04-15 08:46 38.72629 29.92045 39200 ft 503 kts 82°
2026-04-15 08:46 38.73751 30.00900 39214 ft 504 kts 82°
2026-04-15 08:47 38.74868 30.09770 39208 ft 504 kts 82°
2026-04-15 08:47 38.75793 30.17151 39215 ft 504 kts 82°
2026-04-15 08:48 38.76897 30.26016 39217 ft 504 kts 82°
2026-04-15 08:48 38.78174 30.36345 39217 ft 505 kts 82°
2026-04-15 08:49 38.79087 30.43790 39213 ft 505 kts 82°
2026-04-15 08:49 38.80201 30.52693 39210 ft 506 kts 78°
2026-04-15 08:50 38.82405 30.61181 39223 ft 504 kts 65°
2026-04-15 08:50 38.85234 30.69421 39214 ft 505 kts 64°
2026-04-15 08:51 38.88064 30.77682 39212 ft 506 kts 64°
2026-04-15 08:51 38.90840 30.85984 39212 ft 506 kts 65°
2026-04-15 08:52 38.93589 30.94316 39209 ft 506 kts 65°
2026-04-15 08:52 38.96323 31.02638 39219 ft 505 kts 64°
2026-04-15 08:53 38.99037 31.10913 39213 ft 505 kts 65°
2026-04-15 08:53 39.01756 31.19221 39217 ft 504 kts 64°
2026-04-15 08:54 39.04466 31.27527 39220 ft 503 kts 64°
2026-04-15 08:54 39.07163 31.35816 39215 ft 501 kts 64°
2026-04-15 08:55 39.09848 31.44092 39215 ft 500 kts 64°
2026-04-15 08:55 39.12521 31.52357 39217 ft 499 kts 64°
2026-04-15 08:56 39.15185 31.60620 39212 ft 498 kts 64°
2026-04-15 08:56 39.17837 31.68865 39226 ft 497 kts 64°
2026-04-15 08:57 39.20464 31.77059 39220 ft 497 kts 64°
2026-04-15 08:57 39.23102 31.85314 39221 ft 497 kts 64°
2026-04-15 08:58 39.25731 31.93561 39220 ft 497 kts 64°
2026-04-15 08:58 39.29667 32.05959 39223 ft 497 kts 64°
2026-04-15 08:59 39.32266 32.14177 39220 ft 498 kts 64°
2026-04-15 08:59 39.34881 32.22472 39216 ft 499 kts 64°
2026-04-15 09:00 39.37500 32.30804 39221 ft 499 kts 64°
2026-04-15 09:00 39.40096 32.39133 39214 ft 500 kts 65°
2026-04-15 09:01 39.42615 32.47463 39221 ft 500 kts 65°
2026-04-15 09:01 39.44396 32.56190 39223 ft 504 kts 80°
2026-04-15 09:02 39.45284 32.65204 39216 ft 504 kts 82°
2026-04-15 09:02 39.46168 32.74208 39206 ft 504 kts 81°
2026-04-15 09:03 39.47120 32.83194 39212 ft 504 kts 80°
2026-04-15 09:03 39.48068 32.92126 39208 ft 504 kts 80°
2026-04-15 09:04 39.49022 33.01112 39212 ft 503 kts 80°
2026-04-15 09:04 39.49973 33.10106 39207 ft 503 kts 80°
2026-04-15 09:05 39.50912 33.19087 39212 ft 503 kts 80°
2026-04-15 09:05 39.51847 33.28085 39218 ft 503 kts 80°
2026-04-15 09:06 39.52766 33.37072 39220 ft 504 kts 81°
2026-04-15 09:06 39.53671 33.46020 39218 ft 504 kts 81°
2026-04-15 09:07 39.54577 33.55053 39215 ft 504 kts 81°
2026-04-15 09:07 39.55477 33.64079 39229 ft 504 kts 81°
2026-04-15 09:08 39.56367 33.73042 39222 ft 505 kts 80°
2026-04-15 09:08 39.57258 33.82076 39215 ft 505 kts 81°
2026-04-15 09:09 39.58140 33.91109 39227 ft 505 kts 81°
2026-04-15 09:09 39.59013 34.00143 39220 ft 505 kts 80°
2026-04-15 09:10 39.59881 34.09198 39221 ft 506 kts 81°
2026-04-15 09:10 39.60743 34.18264 39214 ft 506 kts 81°
2026-04-15 09:11 39.61597 34.27324 39216 ft 506 kts 81°
2026-04-15 09:11 39.62440 34.36343 39211 ft 506 kts 81°
2026-04-15 09:12 39.63281 34.45407 39218 ft 506 kts 81°
2026-04-15 09:12 39.64117 34.54474 39221 ft 506 kts 81°
2026-04-15 09:13 39.64948 34.63570 39217 ft 507 kts 81°
2026-04-15 09:13 39.65771 34.72679 39216 ft 508 kts 81°
2026-04-15 09:14 39.66582 34.81740 39216 ft 509 kts 81°
2026-04-15 09:14 39.67393 34.90884 39216 ft 509 kts 81°
2026-04-15 09:15 39.68196 35.00029 39213 ft 510 kts 81°
2026-04-15 09:15 39.68994 35.09191 39213 ft 510 kts 81°
2026-04-15 09:16 39.69773 35.18360 39212 ft 511 kts 82°
2026-04-15 09:16 39.70361 35.27584 39217 ft 515 kts 83°
2026-04-15 09:17 39.70878 35.36938 39221 ft 522 kts 83°
2026-04-15 09:17 39.71409 35.46332 39215 ft 526 kts 83°
2026-04-15 09:18 39.71961 35.55828 39214 ft 527 kts 83°
2026-04-15 09:18 39.72512 35.65334 39207 ft 528 kts 83°
2026-04-15 09:19 39.73055 35.74854 39223 ft 527 kts 83°
2026-04-15 09:19 39.73587 35.84354 39219 ft 527 kts 83°
2026-04-15 09:20 39.74112 35.93858 39214 ft 526 kts 83°
2026-04-15 09:20 39.75266 36.03114 39226 ft 518 kts 68°
2026-04-15 09:21 39.78079 36.11620 39239 ft 511 kts 59°
2026-04-15 09:21 39.81126 36.19980 39226 ft 510 kts 59°
2026-04-15 09:22 39.83782 36.28583 39230 ft 514 kts 65°
2026-04-15 09:22 39.86103 36.37386 39226 ft 513 kts 66°
2026-04-15 09:23 39.88388 36.46132 39224 ft 512 kts 65°
2026-04-15 09:23 39.90720 36.54873 39229 ft 510 kts 65°
2026-04-15 09:24 39.93068 36.63580 39242 ft 509 kts 65°
2026-04-15 09:24 39.95408 36.72268 39262 ft 507 kts 65°
2026-04-15 09:25 39.97734 36.80943 39251 ft 506 kts 65°
2026-04-15 09:25 40.00045 36.89600 39248 ft 505 kts 65°
2026-04-15 09:26 40.02347 36.98257 39245 ft 504 kts 65°
2026-04-15 09:26 40.04620 37.06836 39242 ft 503 kts 65°
2026-04-15 09:27 40.06900 37.15469 39232 ft 502 kts 65°
2026-04-15 09:27 40.09167 37.24083 39236 ft 500 kts 65°
2026-04-15 09:28 40.11424 37.32688 39221 ft 500 kts 65°
2026-04-15 09:28 40.13670 37.41281 39223 ft 500 kts 65°
2026-04-15 09:29 40.15910 37.49882 39217 ft 499 kts 66°
2026-04-15 09:29 40.18134 37.58454 39225 ft 497 kts 66°
2026-04-15 09:30 40.20341 37.66987 39234 ft 497 kts 66°
2026-04-15 09:30 40.22550 37.75555 39229 ft 497 kts 66°
2026-04-15 09:31 40.24750 37.84123 39212 ft 497 kts 66°
2026-04-15 09:31 40.26941 37.92686 39236 ft 496 kts 66°
2026-04-15 09:32 40.29127 38.01255 39250 ft 495 kts 66°
2026-04-15 09:32 40.31308 38.09838 39263 ft 497 kts 67°
2026-04-15 09:33 40.33490 38.18454 39257 ft 497 kts 67°
2026-04-15 09:33 40.35646 38.27003 39274 ft 497 kts 67°
2026-04-15 09:34 40.37810 38.35611 39266 ft 497 kts 67°
2026-04-15 09:34 40.39967 38.44222 39263 ft 497 kts 67°
2026-04-15 09:35 40.41755 38.51382 39274 ft 495 kts 67°
2026-04-15 09:35 40.43897 38.59988 39282 ft 496 kts 67°
2026-04-15 09:36 40.46034 38.68609 39301 ft 496 kts 67°
2026-04-15 09:36 40.48167 38.77242 39288 ft 497 kts 68°
2026-04-15 09:37 40.50296 38.85892 39288 ft 497 kts 68°
2026-04-15 09:37 40.52422 38.94559 39278 ft 498 kts 68°
2026-04-15 09:38 40.54528 39.03183 39260 ft 498 kts 68°
2026-04-15 09:38 40.56640 39.11858 39268 ft 498 kts 68°
2026-04-15 09:39 40.58747 39.20547 39264 ft 499 kts 68°
2026-04-15 09:39 40.60854 39.29261 39256 ft 499 kts 68°
2026-04-15 09:40 40.62953 39.37984 39278 ft 499 kts 68°
2026-04-15 09:40 40.65050 39.46727 39281 ft 501 kts 68°
2026-04-15 09:41 40.67138 39.55468 39294 ft 500 kts 68°
2026-04-15 09:41 40.69212 39.64186 39287 ft 502 kts 68°
2026-04-15 09:42 40.71291 39.72957 39303 ft 500 kts 68°
2026-04-15 09:42 40.73362 39.81719 39296 ft 500 kts 69°
2026-04-15 09:43 40.75422 39.90474 39300 ft 499 kts 68°
2026-04-15 09:43 40.77472 39.99217 39300 ft 498 kts 68°
2026-04-15 09:44 40.79515 40.07961 39300 ft 499 kts 68°
2026-04-15 09:44 40.81554 40.16729 39279 ft 499 kts 68°
2026-04-15 09:45 40.83584 40.25493 39284 ft 499 kts 68°
2026-04-15 09:45 40.85610 40.34272 39295 ft 499 kts 68°
2026-04-15 09:46 40.87631 40.43061 39293 ft 500 kts 69°
2026-04-15 09:46 40.89419 40.51897 39287 ft 503 kts 74°
2026-04-15 09:47 40.90721 40.60996 39301 ft 504 kts 76°
2026-04-15 09:47 40.91949 40.70128 39309 ft 504 kts 76°
2026-04-15 09:48 40.93218 40.79253 39299 ft 503 kts 75°
2026-04-15 09:48 40.94514 40.88344 39305 ft 503 kts 75°
2026-04-15 09:49 40.95814 40.97436 39309 ft 503 kts 75°
2026-04-15 09:49 40.97105 41.06534 39299 ft 503 kts 75°
2026-04-15 09:50 40.98384 41.15619 39309 ft 502 kts 75°
2026-04-15 09:50 40.99657 41.24720 39298 ft 502 kts 75°
2026-04-15 09:51 41.00920 41.33810 39279 ft 501 kts 75°
2026-04-15 09:51 41.02172 41.42879 39294 ft 500 kts 76°
2026-04-15 09:52 41.03419 41.51954 39284 ft 500 kts 75°
2026-04-15 09:52 41.04651 41.60977 39291 ft 501 kts 76°
2026-04-15 09:53 41.05883 41.70059 39289 ft 501 kts 76°
2026-04-15 09:53 41.07109 41.79151 39286 ft 501 kts 76°
2026-04-15 09:54 41.08330 41.88266 39286 ft 502 kts 76°
2026-04-15 09:54 41.09544 41.97390 39290 ft 502 kts 76°
2026-04-15 09:55 41.10751 42.06511 39288 ft 502 kts 76°
2026-04-15 09:55 41.11951 42.15637 39294 ft 502 kts 76°
2026-04-15 09:56 41.13135 42.24700 39294 ft 502 kts 76°
2026-04-15 09:57 41.14911 42.38398 39296 ft 502 kts 76°
2026-04-15 09:57 41.16082 42.47515 39275 ft 499 kts 77°
2026-04-15 09:58 41.17233 42.56539 39264 ft 493 kts 77°
2026-04-15 09:58 41.18367 42.65484 39276 ft 489 kts 77°
2026-04-15 09:59 41.19490 42.74382 39257 ft 487 kts 77°
2026-04-15 09:59 41.20594 42.83193 39268 ft 486 kts 77°
2026-04-15 10:00 41.21700 42.92066 39262 ft 487 kts 77°
2026-04-15 10:00 41.22799 43.00951 39256 ft 489 kts 77°
2026-04-15 10:01 41.23897 43.09885 39245 ft 491 kts 77°
2026-04-15 10:01 41.24999 43.18899 38583 ft 501 kts 77°
2026-04-15 10:01 41.25552 43.23456 37961 ft 497 kts 77°
2026-04-15 10:02 41.26100 43.27991 37205 ft 496 kts 76°
2026-04-15 10:02 41.26643 43.32511 36507 ft 495 kts 76°
2026-04-15 10:02 41.27185 43.37022 35763 ft 495 kts 76°
2026-04-15 10:02 41.27728 43.41555 34939 ft 497 kts 76°
2026-04-15 10:03 41.28272 43.46102 34113 ft 499 kts 75°
2026-04-15 10:03 41.28810 43.50629 33150 ft 491 kts 75°
2026-04-15 10:03 41.29334 43.55082 32243 ft 484 kts 75°
2026-04-15 10:03 41.29844 43.59428 31366 ft 478 kts 75°
2026-04-15 10:04 41.30355 43.63778 30510 ft 473 kts 75°
2026-04-15 10:04 41.30858 43.68069 29554 ft 467 kts 75°
2026-04-15 10:04 41.31353 43.72301 28593 ft 460 kts 75°
2026-04-15 10:04 41.31842 43.76491 27671 ft 459 kts 75°
2026-04-15 10:05 41.32335 43.80696 26783 ft 461 kts 76°
2026-04-15 10:05 41.32829 43.84922 25908 ft 462 kts 76°
2026-04-15 10:05 41.33325 43.89197 25043 ft 461 kts 77°
2026-04-15 10:05 41.33810 43.93408 24223 ft 459 kts 77°
2026-04-15 10:06 41.34291 43.97600 23329 ft 456 kts 78°
2026-04-15 10:06 41.34765 44.01759 22484 ft 450 kts 78°
2026-04-15 10:06 41.35221 44.05779 21783 ft 442 kts 78°
2026-04-15 10:06 41.35674 44.09790 21078 ft 434 kts 78°
2026-04-15 10:07 41.36121 44.13739 20396 ft 428 kts 79°
2026-04-15 10:07 41.36560 44.17631 19723 ft 422 kts 79°
2026-04-15 10:07 41.36991 44.21462 19049 ft 416 kts 79°
2026-04-15 10:07 41.37415 44.25242 18415 ft 410 kts 79°
2026-04-15 10:08 41.37832 44.28974 17678 ft 405 kts 79°
2026-04-15 10:08 41.38244 44.32668 16964 ft 401 kts 79°
2026-04-15 10:08 41.38650 44.36316 16261 ft 396 kts 79°
2026-04-15 10:08 41.39050 44.39921 15582 ft 392 kts 79°
2026-04-15 10:09 41.39445 44.43497 14924 ft 388 kts 79°
2026-04-15 10:09 41.39834 44.47039 14332 ft 383 kts 79°
2026-04-15 10:09 41.40223 44.50565 13787 ft 376 kts 80°
2026-04-15 10:09 41.40597 44.53985 13217 ft 369 kts 80°
2026-04-15 10:10 41.40964 44.57345 12663 ft 363 kts 80°
2026-04-15 10:10 41.41325 44.60653 12115 ft 358 kts 80°
2026-04-15 10:10 41.41560 44.62817 11765 ft 355 kts 81°
2026-04-15 10:10 41.41824 44.65251 11357 ft 352 kts 81°
2026-04-15 10:11 41.42171 44.68461 10831 ft 348 kts 81°
2026-04-15 10:11 41.42511 44.71614 10316 ft 338 kts 81°
2026-04-15 10:11 41.42836 44.74661 9766 ft 327 kts 81°
2026-04-15 10:11 41.43152 44.77611 9206 ft 317 kts 81°
2026-04-15 10:12 41.43361 44.79560 8818 ft 312 kts 81°
2026-04-15 10:12 41.43661 44.82379 8281 ft 304 kts 81°
2026-04-15 10:12 41.44053 44.86031 7567 ft 297 kts 81°
2026-04-15 10:12 41.44338 44.88732 7092 ft 291 kts 80°
2026-04-15 10:13 41.44618 44.91375 6664 ft 285 kts 80°
2026-04-15 10:13 41.45251 44.93799 6186 ft 275 kts 50°
2026-04-15 10:13 41.46098 44.95002 5965 ft 263 kts 43°
2026-04-15 10:13 41.47288 44.96764 5626 ft 248 kts 46°
2026-04-15 10:14 41.48374 44.98464 5320 ft 233 kts 46°
2026-04-15 10:14 41.49386 45.00069 4970 ft 221 kts 46°
2026-04-15 10:14 41.50449 45.01457 4625 ft 209 kts 35°
2026-04-15 10:14 41.51578 45.02627 4297 ft 202 kts 34°
2026-04-15 10:15 41.52682 45.03753 4073 ft 194 kts 34°
2026-04-15 10:15 41.53721 45.04821 3986 ft 181 kts 33°
2026-04-15 10:15 41.54665 45.05809 3962 ft 165 kts 32°
2026-04-15 10:15 41.55526 45.06707 3931 ft 148 kts 31°
2026-04-15 10:16 41.56383 45.07125 3973 ft 127 kts 343°
2026-04-15 10:16 41.57092 45.06376 4271 ft 142 kts 312°
2026-04-15 10:16 41.57998 45.05659 3765 ft 164 kts 341°
2026-04-15 10:16 41.58941 45.05164 3809 ft 137 kts 329°
2026-04-15 10:17 41.59723 45.04463 3539 ft 132 kts 319°
2026-04-15 10:17 41.60359 45.03626 3330 ft 131 kts 311°
2026-04-15 10:17 41.61002 45.02665 2993 ft 144 kts 314°
2026-04-15 10:17 41.61694 45.01734 2830 ft 134 kts 311°
2026-04-15 10:18 41.62271 45.00801 2573 ft 132 kts 316°
2026-04-15 10:18 41.63013 44.99980 2302 ft 141 kts 321°
2026-04-15 10:18 41.63740 44.99143 2080 ft 135 kts 315°
2026-04-15 10:18 41.64401 44.98278 1883 ft 130 kts 316°
2026-04-15 10:19 41.65056 44.97433 1721 ft 130 kts 318°
2026-04-15 10:19 41.65711 44.96623 1570 ft 125 kts 316°
2026-04-15 10:19 41.66305 44.95876 1519 ft 106 kts 316°
2026-04-15 10:19 41.66729 44.95340 1521 ft 43 kts 316°
2026-04-15 10:20 41.66821 44.95223 1519 ft 17 kts 314°
2026-04-15 10:20 41.66894 44.95191 1524 ft 10 kts 28°
2026-04-15 10:20 41.66948 44.95249 1522 ft 10 kts 41°
2026-04-15 10:20 41.66994 44.95315 1525 ft 10 kts 47°
2026-04-15 10:21 41.67051 44.95388 1525 ft 13 kts 42°
2026-04-15 10:21 41.67122 44.95475 1524 ft 16 kts 43°
2026-04-15 10:21 41.67216 44.95599 1525 ft 11 kts 43°
2026-04-15 10:21 41.67215 44.95693 1523 ft 12 kts 131°
2026-04-15 10:22 41.67142 44.95792 1522 ft 18 kts 136°
2026-04-15 10:22 41.67055 44.95943 1522 ft 22 kts 123°
2026-04-15 10:22 41.66963 44.96082 1523 ft 7 kts 127°
2026-04-15 10:22 41.66983 44.96151 1523 ft 11 kts 42°
2026-04-15 10:23 41.67004 44.96173 1523 ft 0 kts 41°